Regional Weather Roundup
Issued by NWS

Home | Current Version | Previous Version | Graphics & Text | Print | Product List | Glossary On
Versions: 1 2 3 4 5 6 7 8 9 10 11 12 13 14 15 16 17 18 19 20 21 22 23 24 25 26 27 28 29 30 31 32 33 34 35 36 37 38 39 40 41 42 43 44 45 46 47 48 49 50
000
ASUS43 KOAX 301310
RWRNE
OMARWRNE ALL

WEATHER ROUNDUP FOR NEBRASKA
NATIONAL WEATHER SERVICE OMAHA NE
800 AM CDT TUE JUN 30 2015

NOTES: SATELLITE DATA IS BEING USED TO AUGMENT CLOUD COVER ABOVE
       12000 FEET.
       "FAIR" INDICATES FEW OR NO CLOUDS BELOW 12,000 FEET WITH NO
       SIGNIFICANT WEATHER AND/OR OBSTRUCTIONS TO VISIBILITY.

  * THESE STATIONS DO NOT REPORT WEATHER SUCH AS RAIN...SNOW OR FOG.

NEZ001>004-019>022-054>056-301400-
NEBRASKA PANHANDLE

CITY           SKY/WX    TMP DP  RH WIND       PRES   REMARKS
SCOTTSBLUFF    MOSUNNY   64  56  75 NW6       30.07S
ALLIANCE       SUNNY     62  58  86 SW3       30.05R
CHADRON        MOSUNNY   65  60  84 CALM      30.01S
KIMBALL          N/A    N/A N/A N/A MISG        N/A
SIDNEY         SUNNY     65  57  75 W8        30.10S
$$

NEZ057>060-069>072-079>082-301400-
SOUTHWEST NEBRASKA

CITY           SKY/WX    TMP DP  RH WIND       PRES   REMARKS
NORTH PLATTE   CLOUDY    65  60  84 CALM      30.01S
IMPERIAL       MOSUNNY   66  59  78 CALM      30.05R
LEXINGTON        N/A     69  64  83 CALM      30.00R HAZE
MCCOOK         MOSUNNY   66  58  75 W6        30.01R
OGALLALA       MOSUNNY   64  61  90 CALM      30.04S
$$

NEZ005>010-023>029-035>040-094-301400-
NORTH CENTRAL NEBRASKA

CITY           SKY/WX    TMP DP  RH WIND       PRES   REMARKS
VALENTINE      MOSUNNY   67  62  84 W5        29.95F
AINSWORTH      PTSUNNY   73  61  64 E9        29.99R
BROKEN BOW     PTSUNNY   72  64  76 CALM      30.00S
O`NEILL        CLOUDY    69  65  86 E6        29.99S
ORD            MOSUNNY   66  61  84 CALM      29.96R HAZE
THEDFORD       CLOUDY    65  62  91 CALM      30.01S
$$

NEZ041-046>049-061>064-073>077-083>087-301400-
SOUTH CENTRAL NEBRASKA

CITY           SKY/WX    TMP DP  RH WIND       PRES   REMARKS
GRAND ISLAND   SUNNY     73  62  68 SW6       29.97F
AURORA         SUNNY     69  64  82 W7        29.97S
HASTINGS       SUNNY     72  61  68 SW5       29.98S
HEBRON         SUNNY     68  61  78 CALM      29.97S
HOLDREGE       SUNNY     72  59  64 S6        30.00S
KEARNEY *      SUNNY     70  63  78 S5        29.99S
YORK           SUNNY     68  64  88 CALM      29.97S
$$

NEZ011>018-030>034-042>045-301400-
NORTHEAST NEBRASKA

CITY           SKY/WX    TMP DP  RH WIND       PRES   REMARKS
NORFOLK        CLOUDY    70  65  84 CALM      29.97S HAZE
ALBION         MOSUNNY   66  60  81 N3        29.99R HAZE
BLAIR          PTSUNNY   69  61  75 N9        29.97R
COLUMBUS *     PTSUNNY   68  63  83 NE3       29.98R
FREMONT        PTSUNNY   69  63  80 NW8       29.99R
TEKAMAH        CLOUDY    70  64  81 CALM      29.96R HAZE
WAYNE          LGT RAIN  68  64  89 CALM      29.99S
$$

NEZ050>053-065>068-078-088>093-301400-
SOUTHEAST NEBRASKA

CITY           SKY/WX    TMP DP  RH WIND       PRES   REMARKS
LINCOLN        MOSUNNY   71  63  75 CALM      29.95S HAZE
OMAHA EPPLEY   CLOUDY    70  64  81 N6        29.95R
BEATRICE       SUNNY     69  64  83 W3        29.96F
FALLS CITY     MOSUNNY   68  64  87 W3        29.94R
NEBRASKA CITY  MOSUNNY   71  60  70 W3        29.95S
PLATTSMOUTH    PTSUNNY   70  61  74 NW5       29.95R
$$

NEZ044-045-051>053-067-301400-
OMAHA AREA

CITY           SKY/WX    TMP DP  RH WIND       PRES   REMARKS
OMAHA EPPLEY   CLOUDY    70  64  81 N6        29.95R
BLAIR          PTSUNNY   69  61  75 N9        29.97R
FREMONT        PTSUNNY   69  63  80 NW8       29.99R
MILLARD        PTSUNNY   70  65  84 CALM      29.95R
PLATTSMOUTH    PTSUNNY   70  61  74 NW5       29.95R
WAHOO          PTSUNNY   73  62  69 N9        29.97R
$$


USA.gov is the U.S. government's official web portal to all federal, state and local government web resources and services.